{"data":{"norad_id":51636,"epoch":"2026-09-20T04:49:06.253248Z","epoch_age_seconds":51531,"freshness":"FRESH","line1":"1 51636U 22012Q   26263.20076682  .00000042  00000+0  74297-4 0  9996","line2":"2 51636  87.9196 347.0110 0002220 114.3704 245.7660 13.17650557226184","mean_motion":13.17650557,"eccentricity":0.000222,"inclination_deg":87.9196,"raan_deg":347.011,"arg_perigee_deg":114.3704,"mean_anomaly_deg":245.766,"bstar":7.4297e-5,"rev_number":22618,"period_min":109.28542414755,"perigee_km":1192.0263455846,"apogee_km":1195.3882444516,"semimajor_km":7571.8442950181,"source":"CELESTRAK","updated_at":"2026-09-20T09:00:44.710531Z"}}